Weather History for Anaktuvuk Pass, AK

Change the Weather History Date:

Tuesday, December 3, 2013

  Actual Average Record
Temperature  
Mean Temperature 10 °F -  
Max Temperature 14 °F 0 °F 14 °F (2013)
Min Temperature 5 °F -9 °F -34 °F (2003)
Degree Days  
Heating Degree Days 56    
Moisture  
Dew Point 2 °F    
Average Humidity 73    
Maximum Humidity 79    
Minimum Humidity 62    
Precipitation  
Precipitation 0.00 in - - ()
Sea Level Pressure  
Sea Level Pressure 30.32 in    
Wind  
Wind Speed 18 mph (South)    
Max Wind Speed 24 mph    
Max Gust Speed 32 mph    
Visibility 9 miles    
Events      
Averages and records for this station are not official NWS values.
T = Trace of Precipitation, MM = Missing Value Source: NWS Daily Summary

Daily Weather History Graph

Daily Weather History Graph

Search for Another Location

Airport:

Trip Planner

Search our weather history database for the weather conditions in past years. The results will help you decide how hot, cold, wet, or windy it might be!

Date:

Astronomy

Dec. 03, 2013 Rise Set
Actual Time 12:05 PM AKST 1:47 PM AKST
Civil Twilight 9:59 AM AKST 3:54 PM AKST
Nautical Twilight 8:34 AM AKST 5:18 PM AKST
Astronomical Twilight 7:24 AM AKST 6:28 PM AKST
Moon 12:02 PM AKST (12/3) 3:46 PM AKST (12/3)
Length of Visible Light 5h 55m
Length of Day
1h 42m
New Moon, 1% of the Moon is Illuminated
Dec 3
New Moon
Dec 9
First Quarter
Dec 17
Full
Dec 25
Last Quarter
Jan 1
New

Hourly Weather History & Observations

Time (AKST) Temp. Windchill Dew Point Humidity Pressure Visibility Wind Dir Wind Speed Gust Speed Precip Events Conditions
12:16 AM 10.4 °F -6.0 °F 3.2 °F 73% 30.39 in 10.0 mi South 15.0 mph - N/A   Overcast
12:36 AM 12.2 °F -5.8 °F 6.8 °F 79% 30.38 in 10.0 mi SSW 19.6 mph 26.5 mph N/A   Overcast
12:56 AM 14.0 °F 0.5 °F 6.8 °F 73% 30.39 in 10.0 mi South 11.5 mph - N/A   Scattered Clouds
1:16 AM 8.6 °F -6.3 °F -2.2 °F 62% 30.39 in 8.0 mi SSW 11.5 mph - N/A   Clear
1:36 AM 10.4 °F -6.6 °F 3.2 °F 73% 30.39 in 8.0 mi SSW 16.1 mph - N/A   Clear
1:56 AM 10.4 °F -9.1 °F 3.2 °F 73% 30.38 in 7.0 mi South 21.9 mph 26.5 mph N/A   Partly Cloudy
2:16 AM 10.4 °F -9.1 °F 3.2 °F 73% 30.38 in 7.0 mi South 21.9 mph 25.3 mph N/A   Partly Cloudy
2:36 AM 10.4 °F -8.2 °F 3.2 °F 73% 30.38 in 7.0 mi South 19.6 mph 27.6 mph N/A   Partly Cloudy
2:56 AM 8.6 °F -8.9 °F 1.4 °F 73% 30.38 in 10.0 mi South 16.1 mph 21.9 mph N/A   Partly Cloudy
3:16 AM 8.6 °F -9.5 °F 1.4 °F 73% 30.38 in 10.0 mi South 17.3 mph 20.7 mph N/A   Partly Cloudy
3:36 AM 8.6 °F -7.7 °F 1.4 °F 73% 30.37 in 10.0 mi South 13.8 mph - N/A   Mostly Cloudy
3:56 AM 10.4 °F -9.9 °F 5.0 °F 79% 30.36 in 9.0 mi South 24.2 mph 32.2 mph N/A   Mostly Cloudy
4:16 AM 10.4 °F -8.6 °F 3.2 °F 73% 30.36 in 7.0 mi SSE 20.7 mph 26.5 mph N/A   Scattered Clouds
4:36 AM 10.4 °F -9.1 °F 1.4 °F 67% 30.35 in 8.0 mi South 21.9 mph - N/A   Mostly Cloudy
4:56 AM 10.4 °F -8.6 °F 3.2 °F 73% 30.34 in 7.0 mi SSE 20.7 mph 28.8 mph N/A   Mostly Cloudy
5:16 AM 10.4 °F -9.5 °F 1.4 °F 67% 30.34 in 7.0 mi South 23.0 mph - N/A   Clear
5:36 AM 10.4 °F -9.1 °F 3.2 °F 73% 30.34 in 8.0 mi South 21.9 mph - N/A   Clear
5:56 AM 8.6 °F -11.4 °F 3.2 °F 79% 30.34 in 10.0 mi South 21.9 mph - N/A   Clear
6:16 AM 10.4 °F -8.2 °F 3.2 °F 73% 30.34 in 9.0 mi SSW 19.6 mph 25.3 mph N/A   Clear
6:36 AM 8.6 °F -9.5 °F 1.4 °F 73% 30.35 in 10.0 mi South 17.3 mph - N/A   Clear
6:56 AM 8.6 °F -8.3 °F 1.4 °F 73% 30.34 in 8.0 mi SSW 15.0 mph 18.4 mph N/A   Clear
7:16 AM 8.6 °F -10.0 °F 3.2 °F 79% 30.34 in 10.0 mi SSW 18.4 mph - N/A   Clear
7:36 AM 8.6 °F -9.5 °F 3.2 °F 79% 30.33 in 10.0 mi SSW 17.3 mph 23.0 mph N/A   Partly Cloudy
7:56 AM 10.4 °F -9.5 °F 3.2 °F 73% 30.31 in 9.0 mi South 23.0 mph - N/A   Mostly Cloudy
8:16 AM 8.6 °F -12.3 °F 1.4 °F 73% 30.31 in 7.0 mi South 24.2 mph 27.6 mph N/A   Mostly Cloudy
8:36 AM 8.6 °F -11.9 °F 3.2 °F 79% 30.30 in 8.0 mi SSE 23.0 mph - N/A   Mostly Cloudy
8:56 AM 8.6 °F -10.5 °F 3.2 °F 79% 30.31 in 10.0 mi South 19.6 mph - N/A   Clear
9:16 AM 10.4 °F -8.6 °F 3.2 °F 73% 30.31 in 8.0 mi South 20.7 mph - N/A   Clear
9:36 AM 10.4 °F -8.6 °F 3.2 °F 73% 30.30 in 7.0 mi South 20.7 mph 24.2 mph N/A   Partly Cloudy
9:56 AM 8.6 °F -11.4 °F 3.2 °F 79% 30.29 in 5.0 mi South 21.9 mph - N/A   Partly Cloudy
10:16 AM 10.4 °F -7.7 °F 3.2 °F 73% 30.29 in 5.0 mi SSW 18.4 mph 26.5 mph N/A   Scattered Clouds
10:36 AM 10.4 °F -6.6 °F 3.2 °F 73% 30.30 in 7.0 mi South 16.1 mph 24.2 mph N/A   Scattered Clouds
10:56 AM 10.4 °F -5.4 °F 3.2 °F 73% 30.30 in 10.0 mi South 13.8 mph - N/A   Scattered Clouds
11:16 AM 12.2 °F -1.8 °F 5.0 °F 73% 30.30 in 5.0 mi South 11.5 mph 25.3 mph N/A   Mostly Cloudy
11:36 AM 10.4 °F -6.6 °F 3.2 °F 73% 30.29 in 4.0 mi SW 16.1 mph 26.5 mph N/A   Mostly Cloudy
11:56 AM 8.6 °F -8.9 °F 1.4 °F 73% 30.29 in 7.0 mi South 16.1 mph 26.5 mph N/A   Mostly Cloudy
12:16 PM 10.4 °F -6.0 °F 3.2 °F 73% 30.29 in 7.0 mi SSW 15.0 mph 24.2 mph N/A   Overcast
12:36 PM 10.4 °F -5.4 °F 1.4 °F 67% 30.30 in 7.0 mi South 13.8 mph 27.6 mph N/A   Mostly Cloudy
12:56 PM 10.4 °F -7.2 °F 3.2 °F 73% 30.29 in 8.0 mi South 17.3 mph 23.0 mph N/A   Partly Cloudy
1:16 PM 10.4 °F -7.7 °F 3.2 °F 73% 30.29 in 8.0 mi SSW 18.4 mph 24.2 mph N/A   Clear
1:36 PM 12.2 °F -5.8 °F 3.2 °F 67% 30.28 in 5.0 mi SW 19.6 mph 27.6 mph N/A   Partly Cloudy
1:56 PM 10.4 °F -7.2 °F 3.2 °F 73% 30.29 in 8.0 mi SW 17.3 mph 23.0 mph N/A   Scattered Clouds
2:16 PM 10.4 °F -7.2 °F 1.4 °F 67% 30.29 in 8.0 mi South 17.3 mph 23.0 mph N/A   Scattered Clouds
2:36 PM 10.4 °F -5.4 °F 3.2 °F 73% 30.29 in 7.0 mi SSW 13.8 mph 23.0 mph N/A   Mostly Cloudy
2:56 PM 10.4 °F -6.6 °F 1.4 °F 67% 30.29 in 7.0 mi SSW 16.1 mph 25.3 mph N/A   Mostly Cloudy
3:16 PM 8.6 °F -8.9 °F 1.4 °F 73% 30.29 in 8.0 mi SSW 16.1 mph 24.2 mph N/A   Scattered Clouds
3:36 PM 8.6 °F -7.7 °F 1.4 °F 73% 30.29 in 9.0 mi South 13.8 mph 19.6 mph N/A   Mostly Cloudy
3:56 PM 10.4 °F -8.2 °F 3.2 °F 73% 30.29 in 8.0 mi SW 19.6 mph 27.6 mph N/A   Overcast
4:16 PM 10.4 °F -6.6 °F 3.2 °F 73% 30.29 in 10.0 mi SSW 16.1 mph 23.0 mph N/A   Overcast
4:36 PM 8.6 °F -9.5 °F 1.4 °F 73% 30.29 in 10.0 mi SSW 17.3 mph 24.2 mph N/A   Overcast
4:56 PM 10.4 °F -5.4 °F 3.2 °F 73% 30.29 in 10.0 mi SSW 13.8 mph 20.7 mph N/A   Overcast
5:16 PM 8.6 °F -10.0 °F 1.4 °F 73% 30.29 in 10.0 mi SW 18.4 mph 23.0 mph N/A   Overcast
5:36 PM 10.4 °F -5.4 °F 1.4 °F 67% 30.30 in 10.0 mi SSW 13.8 mph - N/A   Overcast
5:56 PM 8.6 °F -10.0 °F 1.4 °F 73% 30.30 in 10.0 mi South 18.4 mph 23.0 mph N/A   Overcast
6:16 PM 8.6 °F -10.0 °F -0.4 °F 67% 30.30 in 10.0 mi South 18.4 mph - N/A   Mostly Cloudy
6:36 PM 8.6 °F -10.0 °F 1.4 °F 73% 30.29 in 10.0 mi South 18.4 mph 24.2 mph N/A   Overcast
6:56 PM 6.8 °F -12.9 °F -0.4 °F 72% 30.30 in 10.0 mi South 19.6 mph - N/A   Overcast
7:16 PM 8.6 °F -11.0 °F 1.4 °F 73% 30.29 in 10.0 mi South 20.7 mph - N/A   Overcast
7:36 PM 8.6 °F -11.0 °F 1.4 °F 73% 30.30 in 10.0 mi South 20.7 mph - N/A   Overcast
7:56 PM 8.6 °F -10.5 °F 1.4 °F 73% 30.30 in 10.0 mi South 19.6 mph 24.2 mph N/A   Overcast
8:16 PM 8.6 °F -10.0 °F 1.4 °F 73% 30.30 in 10.0 mi South 18.4 mph - N/A   Overcast
8:36 PM 8.6 °F -10.5 °F 1.4 °F 73% 30.30 in 10.0 mi South 19.6 mph - N/A   Overcast
8:56 PM 8.6 °F -8.9 °F 1.4 °F 73% 30.31 in 10.0 mi South 16.1 mph - N/A   Overcast
9:16 PM 8.6 °F -8.9 °F -0.4 °F 67% 30.31 in 10.0 mi SSW 16.1 mph 19.6 mph N/A   Mostly Cloudy
9:36 PM 8.6 °F -9.5 °F 1.4 °F 73% 30.31 in 10.0 mi South 17.3 mph - N/A   Mostly Cloudy
9:56 PM 6.8 °F -11.8 °F -0.4 °F 72% 30.31 in 10.0 mi SSW 17.3 mph - N/A   Mostly Cloudy
10:16 PM 6.8 °F -11.8 °F -0.4 °F 72% 30.32 in 10.0 mi South 17.3 mph - N/A   Scattered Clouds
10:36 PM 8.6 °F -10.0 °F -0.4 °F 67% 30.31 in 10.0 mi South 18.4 mph 21.9 mph N/A   Partly Cloudy
10:56 PM 6.8 °F -12.9 °F -2.2 °F 67% 30.31 in 10.0 mi South 19.6 mph - N/A   Clear
11:16 PM 5.0 °F -14.2 °F -2.2 °F 72% 30.31 in 10.0 mi South 17.3 mph - N/A   Clear
11:36 PM 5.0 °F -14.2 °F -0.4 °F 78% 30.32 in 10.0 mi South 17.3 mph - N/A   Clear
11:56 PM 5.0 °F -15.2 °F -2.2 °F 72% 30.32 in 10.0 mi South 19.6 mph - N/A   Clear